Home > Weather > Portimão > Past weeks

Flag for Portugal Weather for the Past 2 Weeks in Portimão, Portugal

Now
61 °F

Passing clouds.


Feels Like: 61 °F
Forecast: N/A
Wind: 14 mph from West

Location: Faro / Aeroporto

Current Time: Feb 9, 2016 at 11:05:02 PM

Latest Report: Feb 9, 2016 at 10:30 PM


Visibility: N/A

Pressure: 30.36 "Hg

Humidity: 88%

Dew point: 57 °F

Location of PortimãoLocation

Historic Weather in Portimão — Graph

°F

Portimão Temperature Yesterday

Maximum temperature yesterday: 63 °F (at 11:30 AM)
Minimum temperature yesterday: 48 °F (at 1:30 AM)
Average temperature yesterday: 57 °F

High & Low Weather Summary for the Past Weeks

 TemperatureHumidityPressure
High68 °F (Feb 1, 12:30 PM)100% (Jan 26, 1:00 AM)30.60 "Hg (Jan 26, 1:00 AM)
Low46 °F (Jan 27, 6:30 AM)48% (Feb 4, 4:00 AM)30.12 "Hg (Feb 6, 5:30 AM)
Average57 °F79%30.38 "Hg
* Reported Jan 25 9:00 PM — Feb 9 9:30 PM, Portimão, Weather by CustomWeather, © 2016

Note: Actual official high and low records may vary slightly from our data, if they occured in-between our weather recording intervals... More about our weather records

Advertising

Portimão Weather History for the Previous 24 Hours

 ConditionsComfort  
Time TempWeatherWind HumidityBarometerVisibility
9:30 PM
Tue, Feb 9
61 °FPartly cloudy.14 mph94%30.36 "HgN/A
9:00 PM61 °FPassing clouds.14 mph94%30.36 "HgN/A
8:30 PM61 °FPassing clouds.15 mph88%30.36 "HgN/A
8:00 PM61 °FPartly cloudy.17 mph88%30.36 "HgN/A
7:30 PM61 °FPartly cloudy.16 mph88%30.36 "HgN/A
7:00 PM59 °FPartly cloudy.15 mph94%30.36 "HgN/A
6:30 PM61 °FDrizzle. Fog.14 mph94%30.36 "Hg2 mi
6:00 PM61 °FPartly sunny.14 mph94%30.33 "HgN/A
5:30 PM61 °FBroken clouds.16 mph94%30.33 "HgN/A
5:00 PM61 °FBroken clouds.16 mph88%30.33 "HgN/A
4:30 PM61 °FPartly sunny.16 mph94%30.33 "HgN/A
4:00 PM61 °FBroken clouds.17 mph94%30.36 "HgN/A
3:30 PM61 °FScattered showers. Broken clouds.20 mph88%30.36 "HgN/A
3:00 PM61 °FScattered showers. Broken clouds.22 mph94%30.33 "HgN/A
2:30 PM61 °FDrizzle. Broken clouds.20 mph94%30.36 "Hg5 mi
2:00 PM63 °FBroken clouds.18 mph88%30.36 "HgN/A
1:30 PM61 °FBroken clouds.18 mph94%30.36 "HgN/A
1:00 PM61 °FLight rain. Broken clouds.20 mph88%30.39 "Hg4 mi
12:30 PM63 °FBroken clouds.18 mph77%30.39 "HgN/A
12:00 PM64 °FBroken clouds.14 mph78%30.39 "HgN/A
11:30 AM63 °FPartly sunny.12 mph83%30.42 "HgN/A
10:30 AM63 °FScattered clouds.12 mph77%30.42 "HgN/A
10:00 AM63 °FPartly sunny.10 mph73%30.42 "HgN/A
9:30 AM61 °FPartly sunny.7 mph88%30.39 "HgN/A
9:00 AM61 °FPartly sunny.6 mph88%30.39 "HgN/A
8:00 AM59 °FPartly sunny.7 mph88%30.36 "HgN/A
7:30 AM59 °FScattered clouds.8 mph88%30.36 "HgN/A
7:00 AM59 °FPassing clouds.5 mph88%30.36 "HgN/A
6:30 AM59 °FPassing clouds.6 mph82%30.36 "HgN/A
6:00 AM57 °FPassing clouds.2 mph88%30.36 "HgN/A
5:30 AM57 °FPassing clouds.2 mph82%30.36 "HgN/A
4:30 AM57 °FPassing clouds.5 mph82%30.36 "HgN/A
3:30 AM57 °FPassing clouds.5 mph82%30.39 "HgN/A
3:00 AM57 °FPassing clouds.2 mph82%30.39 "HgN/A
2:30 AM57 °FPassing clouds.2 mph77%30.39 "HgN/A
2:00 AM57 °FPassing clouds.5 mph77%30.39 "HgN/A
1:30 AM57 °FPassing clouds.5 mph82%30.39 "HgN/A
1:00 AM57 °FPassing clouds.5 mph82%30.42 "HgN/A
12:30 AM59 °FPassing clouds.6 mph77%30.42 "HgN/A
12:00 AM57 °FPassing clouds.5 mph82%30.42 "HgN/A
11:30 PM
Mon, Feb 8
57 °FPassing clouds.5 mph82%30.42 "HgN/A
11:00 PM59 °FPassing clouds.5 mph77%30.42 "HgN/A
Weather by CustomWeather, © 2016

See weather overviewHow to use our weather pages